Lapse_Rate
5.5 6.0 6.2 6.6 6.7 6.6 6.6 6.9 6.6 6.5 6.8 7.4 6.9 6.4 6.2 5.8 5.6 5.7 5.7 5.9 5.4 5.4 5.6 5.3 4.5 4.2 4.0 4.3 4.2 4.5 5.0 5.2 5.5 5.8 5.8 5.9 6.2 6.3 6.3 6.5 6.6 6.9 7.2 7.3
6.0 6.1 6.1 6.4 6.3 6.5 6.6 6.6 6.6 6.9 7.0 6.9 6.3 6.0 5.8 5.9 5.5 5.3 5.2 5.2 5.3 5.2 5.0 4.5 4.2 4.5 4.5 4.4 4.5 5.0 5.4 5.6 5.8 5.9 6.1 6.4 6.5 6.6 6.6 6.5 6.8 6.9 7.1 7.3
5.3 5.6 6.0 5.7 6.6 6.7 6.7 6.7 6.7 6.5 6.6 6.1 5.8 5.6 5.6 5.4 5.4 5.4 5.4 5.1 4.9 4.6 4.4 4.5 4.5 4.8 5.0 4.9 4.8 5.3 5.4 5.6 5.9 6.0 6.4 6.6 6.8 6.8 6.8 6.8 6.9 7.1 7.5 7.5
5.7 5.9 5.8 6.4 6.4 6.5 6.5 6.7 6.6 6.6 6.3 5.9 5.6 5.4 5.4 5.1 5.2 5.2 5.1 4.9 4.6 4.4 4.4 4.8 5.2 5.4 5.3 5.2 5.3 5.3 5.5 5.8 5.8 5.8 6.1 6.4 6.7 6.7 6.6 6.9 7.2 7.4 7.6 7.7
6.1 5.6 6.0 5.9 6.4 6.7 6.8 6.6 6.7 6.5 6.1 5.7 5.3 5.3 5.2 5.1 5.2 5.1 4.7 4.5 4.6 4.9 5.1 5.0 4.9 5.0 5.0 5.2 5.4 5.3 5.4 5.7 5.9 5.8 6.2 6.6 6.7 6.7 6.7 6.9 7.2 7.3 7.4 7.5
6.0 5.9 5.4 5.7 6.0 6.7 6.7 5.8 6.1 5.8 5.4 5.4 5.2 5.1 5.3 5.1 4.8 4.7 4.8 5.1 5.3 5.3 4.9 4.8 4.7 4.8 4.9 5.0 5.3 5.8 5.9 5.6 5.7 5.9 6.9 6.9 7.0 6.8 6.9 7.0 7.2 7.4 7.4 7.4
6.0 5.9 5.6 5.5 6.1 6.2 5.4 5.9 5.5 5.2 4.9 4.8 4.7 4.8 5.1 5.2 5.5 5.4 5.3 5.2 5.0 5.0 5.0 5.1 5.1 5.1 5.2 5.2 5.3 5.4 5.6 5.7 5.8 6.0 6.7 7.5 7.4 7.2 7.2 7.4 7.4 7.5 7.6 7.6
5.7 5.8 5.7 6.0 6.0 5.7 5.5 5.6 5.1 4.9 4.9 4.8 5.0 5.1 5.0 4.9 4.7 4.6 4.7 4.8 4.9 4.9 4.8 4.7 5.0 5.2 5.3 5.5 5.4 5.3 5.9 6.5 6.8 6.8 7.5 7.3 7.7 7.8 7.7 7.6 7.7 7.8 7.8 7.8
5.9 6.1 6.1 5.9 5.8 5.7 5.3 4.8 4.7 4.6 4.5 4.6 4.4 4.3 4.3 4.4 4.5 4.5 4.6 4.3 4.2 4.4 4.8 5.1 5.2 5.3 5.4 5.7 6.0 5.7 6.1 6.6 7.0 7.2 7.6 7.9 7.7 7.7 7.6 7.6 7.6 7.8 7.9 7.8
5.9 5.9 6.0 5.7 5.6 5.2 5.0 4.8 4.1 4.2 4.3 4.2 4.3 4.4 4.3 4.4 4.5 4.6 4.5 4.6 4.8 4.8 4.5 4.5 4.7 4.7 4.8 5.1 5.5 6.1 6.5 6.7 7.0 7.7 7.7 7.7 7.7 7.7 7.6 7.3 7.3 7.4 7.7 7.7
5.8 5.8 5.6 5.5 5.3 4.9 4.8 4.4 4.1 4.2 4.3 4.5 4.5 4.6 4.6 4.6 4.6 4.7 4.9 4.7 4.3 4.2 4.2 4.1 4.1 4.1 4.4 4.9 5.3 5.6 5.7 6.2 7.3 7.5 7.5 7.4 7.7 7.7 7.7 7.7 7.6 7.3 7.4 7.2
5.7 5.6 5.4 5.3 5.1 4.8 4.6 4.2 4.2 4.6 4.7 4.8 4.9 4.9 4.8 5.1 5.2 4.7 4.2 4.2 4.3 4.2 4.1 4.2 4.3 4.7 5.2 5.4 5.3 5.0 5.2 5.9 6.9 7.6 7.6 7.7 7.6 7.6 7.9 7.8 7.7 7.7 7.6 7.3
5.5 5.4 5.3 5.1 4.9 4.7 4.4 4.7 4.8 4.9 4.9 4.9 4.9 5.3 5.3 4.7 4.3 4.3 4.6 4.5 4.3 4.3 4.3 4.3 4.6 5.1 5.4 5.2 4.8 5.1 5.8 6.1 6.6 7.4 7.3 7.5 7.7 7.8 7.6 7.4 7.5 7.6 7.6 7.4
5.5 5.4 5.1 5.1 4.7 4.4 4.6 4.7 4.8 4.9 5.0 5.2 5.3 4.6 4.3 4.6 4.6 4.8 4.6 4.4 4.3 4.3 4.4 4.8 5.3 5.7 5.5 5.3 5.6 6.2 6.2 6.1 6.4 7.0 7.6 7.8 7.6 7.4 7.3 7.3 7.4 7.4 7.4 7.3
5.5 4.8 4.5 4.5 4.3 4.5 4.6 4.7 4.8 5.1 5.2 4.8 4.5 4.7 4.8 5.0 5.1 4.9 4.5 4.3 4.3 4.4 4.5 5.0 5.7 5.9 5.8 5.7 6.4 6.8 6.7 6.5 6.3 6.5 6.8 6.9 7.3 7.6 7.5 7.4 7.5 7.5 7.4 7.4
4.5 4.4 4.3 4.5 4.4 4.5 4.7 5.0 5.2 5.0 4.7 4.8 5.1 5.0 5.6 5.6 5.1 4.6 4.4 4.3 4.3 4.5 4.8 5.4 5.9 5.8 5.7 5.6 6.4 6.9 7.0 6.9 6.6 6.5 6.5 6.8 6.7 7.1 7.0 7.0 7.1 7.2 7.2 7.3
4.4 4.3 4.5 4.5 4.6 4.7 5.1 5.3 5.0 4.7 5.2 5.3 5.3 6.0 5.8 5.3 5.0 4.7 4.5 4.4 4.5 4.6 4.8 5.4 5.9 5.8 5.6 5.7 6.3 6.8 6.9 6.9 6.9 7.0 6.8 6.7 6.8 6.9 6.7 6.6 6.6 6.7 6.9 7.1
4.2 4.3 4.6 4.6 4.8 5.1 5.2 5.0 5.0 5.5 5.3 5.6 6.0 5.8 5.6 5.3 5.0 4.7 4.5 4.5 4.7 4.8 5.0 5.6 6.0 6.0 5.8 6.1 6.4 6.6 6.7 6.9 7.1 7.1 7.2 7.1 7.0 7.0 6.9 7.1 7.1 6.8 6.4 6.4
4.2 4.5 4.5 4.8 5.1 5.1 5.0 5.3 5.6 5.5 5.7 5.9 5.9 5.6 5.4 5.2 4.9 4.8 4.8 4.8 5.0 5.1 5.3 6.0 6.0 5.8 6.0 6.2 6.4 6.6 6.9 7.1 7.3 7.3 7.3 7.4 7.3 7.2 7.0 7.1 7.1 6.9 6.9 6.9
4.4 4.6 4.9 4.9 5.0 5.1 5.5 5.6 5.5 5.6 5.7 5.7 5.7 5.5 5.3 5.1 5.1 5.1 5.1 5.1 5.0 5.1 5.3 5.9 6.0 5.9 6.1 6.3 6.5 6.7 6.9 6.9 6.9 7.0 7.0 7.1 7.1 7.2 7.2 7.0 6.9 7.1 7.1 7.0
4.6 4.7 4.8 4.9 5.3 5.7 5.6 5.4 5.6 5.6 5.5 5.6 5.6 5.5 5.3 5.2 5.3 5.2 5.1 5.3 5.3 5.4 5.5 6.0 6.0 5.9 6.0 6.1 6.3 6.5 6.6 6.7 6.8 6.7 6.7 6.7 6.6 6.7 6.7 6.6 6.7 6.8 7.1 7.2
4.6 4.9 4.9 5.5 5.8 5.6 5.4 5.7 5.6 5.4 5.5 5.6 5.4 5.4 5.4 5.4 5.4 5.3 5.1 5.1 5.3 5.4 5.5 6.0 5.9 5.8 5.8 5.9 6.0 6.2 6.4 6.5 6.5 6.5 6.5 6.4 6.5 6.6 6.6 6.6 6.6 6.7 6.9 7.0
4.8 5.0 5.6 5.7 5.6 5.4 5.6 5.6 5.4 5.4 5.4 5.4 5.3 5.5 5.6 5.5 5.4 5.2 5.3 5.3 5.5 5.5 5.4 5.9 5.8 5.7 5.7 5.7 5.9 6.1 6.4 6.6 6.6 6.5 6.5 6.4 6.4 6.5 6.5 6.6 6.7 6.7 6.8 6.7
5.0 5.5 5.6 5.5 5.4 5.6 5.5 5.3 5.1 5.1 5.2 5.2 5.5 5.6 5.6 5.5 5.2 5.1 5.1 5.1 5.2 5.3 5.2 5.8 5.7 5.7 5.7 5.7 5.8 6.0 6.4 6.5 6.6 6.6 6.6 6.5 6.5 6.4 6.4 6.5 6.4 6.4 6.4 6.4
5.4 5.4 5.2 5.2 5.6 5.5 5.1 4.9 4.9 4.9 5.0 5.2 5.5 5.7 5.6 5.4 5.3 5.2 5.0 5.0 5.1 5.2 5.2 5.7 5.8 5.8 5.7 5.7 5.8 6.0 6.2 6.4 6.4 6.4 6.4 6.5 6.5 6.5 6.5 6.6 6.4 6.4 6.4 6.3
5.1 4.9 5.1 5.4 5.4 5.0 4.7 4.8 4.7 4.8 5.0 5.2 5.5 5.6 5.6 5.4 5.3 5.1 5.0 4.9 5.0 5.1 5.2 5.5 5.8 5.8 5.6 5.6 5.8 6.0 6.0 6.1 6.2 6.2 6.2 6.1 6.2 6.4 6.5 6.6 6.5 6.5 6.4 6.3
4.9 5.0 5.2 5.1 4.9 4.7 4.6 4.6 4.6 4.8 5.0 5.3 5.5 5.6 5.5 5.4 5.4 5.2 5.0 4.9 5.0 5.1 5.2 5.2 5.9 5.7 5.6 5.6 5.8 6.0 6.1 6.1 6.1 6.2 6.2 6.3 6.4 6.5 6.7 6.7 6.7 6.7 6.6 6.5
Wind_Speed
9 5 5 5 6 7 7 13 8 22 23 25 18 15 14 11 8 6 6 9 12 9 7 7 6 5 6 6 6 6 6 6 8 7 6 6 6 5 5 6 5 3 4 5
7 8 8 9 8 10 14 16 16 22 25 12 7 7 6 6 9 13 18 15 11 10 7 5 6 7 7 8 8 7 7 8 7 6 6 6 6 6 5 5 8 4 4 5
16 5 1 9 11 17 13 12 9 12 10 3 4 7 7 6 5 3 2 4 5 6 6 7 8 9 9 10 7 7 8 8 7 7 6 6 6 6 6 6 6 5 6 4
6 2 12 4 4 6 12 10 3 2 1 2 2 3 5 6 5 6 6 6 7 6 6 8 8 8 9 7 7 8 10 10 8 7 8 7 6 7 6 5 5 4 5 5
3 6 10 9 7 5 6 4 0 4 2 1 4 2 3 3 2 3 5 7 7 7 8 9 9 12 9 7 9 9 12 12 11 9 9 8 7 7 6 5 4 5 5 3
3 4 6 1 3 2 3 5 4 5 3 2 3 2 4 5 5 8 8 7 8 11 9 8 12 11 6 9 7 10 13 14 12 10 10 9 9 7 6 5 4 3 5 3
11 6 6 3 3 1 4 2 4 5 5 5 3 4 3 7 9 10 10 14 14 13 10 11 13 13 10 9 9 13 12 12 12 10 11 11 9 5 6 6 4 4 4 5
3 3 9 3 2 5 1 0 2 2 3 3 5 9 10 11 11 12 13 16 16 13 13 13 14 14 13 13 14 14 16 15 15 11 10 8 9 6 5 6 6 5 3 5
7 4 3 4 3 3 3 1 3 6 8 10 9 8 8 10 12 12 13 11 11 10 11 11 13 11 13 15 16 17 14 15 13 9 9 7 9 7 4 5 4 4 4 3
2 5 5 4 1 3 8 10 11 11 11 11 9 9 9 9 9 9 7 8 9 10 11 12 13 13 13 13 14 16 17 17 13 11 12 8 6 6 6 5 4 5 4 3
2 3 5 3 6 10 12 11 13 13 12 11 9 9 8 8 8 9 9 11 11 11 11 13 13 13 14 16 17 17 16 14 14 9 8 9 8 7 6 6 5 4 4 2
5 7 5 6 9 10 12 11 10 10 11 12 9 7 7 7 6 8 9 10 10 11 11 11 12 13 13 14 16 15 15 13 10 7 3 1 1 3 8 8 10 11 10 5
4 10 13 11 10 10 13 11 11 12 10 8 7 7 6 5 8 10 9 9 9 10 11 10 10 10 12 14 14 14 14 15 12 8 6 4 3 4 3 3 8 11 9 7
17 16 8 8 7 10 11 11 13 10 7 5 4 4 6 6 7 7 8 9 9 10 11 11 10 10 13 13 13 13 13 16 10 9 10 10 7 4 3 3 4 4 4 6
7 7 11 14 11 9 8 9 9 7 6 5 5 7 6 6 7 7 8 9 10 10 10 10 12 13 14 14 13 13 10 9 10 10 9 9 7 7 6 5 4 1 1 2
13 14 13 13 11 8 8 7 8 6 5 7 5 3 3 4 5 6 6 8 9 8 9 9 11 13 15 15 14 9 8 12 11 9 9 9 9 7 7 7 6 5 2 3
17 10 11 11 10 8 7 7 6 6 5 2 2 3 4 5 5 6 8 8 8 6 8 12 13 13 14 14 16 6 7 9 13 10 9 9 7 6 6 6 5 4 4 6
8 11 8 13 12 10 8 8 6 4 4 4 2 3 4 4 6 7 9 9 7 5 8 10 9 14 12 12 13 11 10 10 10 10 10 10 9 8 7 6 6 6 5 5
12 14 12 11 10 8 7 6 5 4 3 2 3 2 2 3 4 6 7 7 5 10 9 11 14 12 12 14 14 11 11 12 11 9 9 11 9 7 6 5 6 6 6 6
13 11 11 10 8 7 6 5 5 2 2 4 4 3 4 4 4 4 5 5 4 6 9 12 12 11 12 14 14 10 11 12 12 10 9 9 8 7 6 7 7 7 4 5
13 12 11 10 7 6 5 5 4 4 2 4 4 1 4 5 3 3 4 6 8 10 10 13 10 9 10 12 12 10 10 11 12 9 9 9 10 9 7 7 7 7 7 7
11 10 7 7 6 4 4 5 5 5 4 4 2 0 1 3 3 4 2 6 7 10 8 8 9 13 12 15 9 10 11 11 10 10 9 8 9 7 8 9 9 7 6 6
10 9 8 7 7 8 5 6 4 5 5 4 3 0 1 1 3 5 7 10 7 10 9 8 12 14 15 10 9 10 11 11 11 11 10 9 10 7 8 9 9 9 8 6
10 9 8 7 9 8 7 7 5 5 4 4 3 3 2 1 3 2 5 7 8 8 8 9 11 15 14 9 9 10 10 9 10 10 12 13 8 7 8 9 10 9 8 7
10 9 8 9 9 4 6 5 4 3 4 3 3 2 3 3 1 4 5 6 9 9 8 10 12 14 9 9 10 10 11 8 9 10 10 9 10 10 9 6 8 8 8 9
9 6 5 7 5 4 4 3 3 3 3 1 1 1 2 1 2 3 4 6 7 8 7 8 8 9 9 10 11 11 10 10 10 9 10 10 10 10 8 10 9 8 8 8
6 6 5 5 4 4 3 3 3 2 2 2 2 2 1 2 3 3 5 4 5 5 6 6 7 9 9 10 10 11 10 10 11 10 9 9 9 9 10 10 9 9 8 8
Wind_Direction
283 238 195 209 203 223 219 248 250 279 279 284 299 306 294 241 189 175 211 238 236 218 216 221 216 211 225 239 235 224 233 239 241 244 247 254 261 265 281 288 282 282 307 299
244 258 233 240 221 232 247 259 264 268 274 298 291 302 299 214 197 214 230 240 239 232 218 208 205 217 225 232 231 207 223 237 242 245 247 248 251 263 271 277 290 277 287 290
284 210 26 269 201 219 234 227 232 261 276 346 357 356 4 343 343 326 242 218 224 233 220 215 217 221 226 232 228 215 227 238 239 237 239 243 245 242 244 263 274 275 292 280
268 103 264 285 234 232 232 240 215 342 49 61 44 353 19 23 30 4 351 324 298 268 251 243 240 240 240 236 226 224 232 235 231 223 231 237 238 235 241 242 258 275 286 269
241 255 289 275 264 180 187 230 167 181 234 220 25 30 331 359 18 295 264 260 252 245 237 245 242 244 240 236 233 229 238 235 232 218 220 221 230 235 233 224 258 282 296 319
136 233 259 157 131 61 50 272 184 158 216 57 58 48 266 268 313 308 302 294 291 283 267 250 252 250 249 254 250 245 249 243 234 217 215 217 218 221 228 218 209 232 276 274
242 254 270 230 145 67 112 268 178 195 198 194 194 199 288 337 1 13 16 17 10 8 359 357 3 346 312 289 274 274 270 257 241 217 213 215 215 201 216 223 220 217 258 273
203 243 269 146 100 171 217 67 290 340 346 353 27 35 36 33 24 20 20 14 14 11 8 3 6 352 342 338 332 334 322 293 268 236 212 207 211 209 211 210 220 217 196 265
200 214 124 51 102 299 337 196 19 60 51 82 60 39 37 30 25 21 18 9 10 2 359 2 1 360 345 348 347 334 314 313 289 274 255 213 197 197 199 204 216 230 197 223
138 179 141 114 32 43 63 90 76 68 65 65 63 40 43 36 25 11 7 360 352 354 353 352 352 344 338 340 338 333 329 319 291 261 247 234 201 195 194 193 214 234 234 189
251 282 113 47 82 103 91 92 88 79 70 64 58 42 38 25 14 2 355 10 12 4 355 350 346 342 347 347 340 332 328 326 318 275 246 226 222 209 204 215 181 200 229 219
219 167 105 106 102 104 100 92 86 92 82 63 52 44 25 17 357 8 25 6 4 353 343 343 344 354 348 347 343 339 335 325 324 311 295 255 246 270 268 257 220 221 220 212
160 112 111 113 98 106 103 99 92 85 77 75 52 42 28 14 15 14 11 358 350 342 340 342 349 341 344 341 338 339 340 343 335 322 323 302 261 228 219 274 286 264 243 248
121 112 107 169 130 120 111 107 99 90 84 79 83 58 38 21 358 358 355 342 339 337 337 334 331 348 344 342 337 335 338 341 345 345 346 337 310 292 286 255 257 253 227 228
114 80 120 123 118 116 113 115 110 104 97 78 60 48 27 1 358 349 340 336 334 338 342 350 360 355 348 342 337 336 339 338 341 337 331 323 320 322 308 287 278 273 288 304
116 115 122 126 128 127 129 127 118 113 89 55 35 0 349 354 328 314 327 341 342 340 352 358 348 342 338 330 323 318 326 328 331 329 329 341 341 346 349 359 359 343 348 333
123 131 138 139 143 142 134 135 129 104 87 107 262 318 326 328 314 345 352 344 339 341 5 351 335 336 331 326 325 314 324 323 318 312 313 313 314 323 331 340 329 329 334 330
117 132 146 145 144 139 138 137 109 126 181 219 318 350 356 335 350 344 338 337 341 353 352 339 325 328 325 329 332 328 323 317 311 308 306 305 303 305 299 296 295 292 295 293
125 126 129 132 136 143 133 127 163 186 198 262 51 335 321 9 344 334 339 344 349 344 340 332 330 332 336 333 330 326 312 307 303 301 302 301 298 294 295 290 287 282 285 283
124 122 124 135 139 125 134 162 173 157 68 102 121 57 9 313 294 323 341 330 316 320 324 329 323 328 330 329 330 318 318 317 313 306 297 294 290 290 286 288 287 286 272 270
137 137 141 145 133 134 150 152 126 119 152 128 115 143 255 288 324 325 350 344 337 333 326 322 325 326 331 328 326 321 323 321 320 319 329 326 325 306 289 286 287 287 284 280
143 145 135 133 136 136 142 126 125 137 142 129 104 344 334 340 350 336 276 334 330 325 328 322 324 327 322 324 319 323 319 319 317 312 310 307 305 301 308 300 289 276 269 263
147 142 147 147 142 140 126 132 152 150 154 160 161 68 356 337 5 348 337 336 329 326 326 320 320 322 322 322 321 321 318 318 316 312 311 304 303 295 313 303 288 283 278 268
138 152 157 143 130 135 149 169 165 145 156 165 170 206 359 353 338 324 320 318 316 318 315 315 322 321 324 320 322 319 314 311 322 326 320 323 312 315 318 307 325 300 275 262
157 156 143 141 152 157 146 147 140 135 119 75 57 42 27 26 153 322 325 324 320 327 321 323 323 327 325 324 324 320 318 319 323 324 321 321 320 312 311 316 324 319 319 336
156 148 140 143 146 141 148 157 160 146 142 216 301 341 6 357 343 328 321 324 327 322 326 326 328 327 327 327 323 322 323 325 325 321 319 315 314 314 318 314 308 307 304 302
121 115 116 112 123 143 163 167 147 164 173 152 223 304 57 328 343 334 330 323 318 315 322 323 326 327 327 325 323 325 325 325 324 320 316 313 310 308 305 301 297 294 291 287